Terminal Aerodrome Forecast
Issued by NWS

Home | Current Version | Previous Version | Text Only | Print | Product List | Glossary On
Versions: 1 2 3 4 5 6 7 8 9 10 11 12 13 14 15 16 17 18 19 20 21 22 23 24 25 26 27 28 29 30 31
000
FTPA31 PHFO 171700
TAFLNY
TAF
PHNY 171734Z 1718/1818 VRB06KT P6SM FEW030
     FM172100 26008KT P6SM BKN025
     FM180200 04013KT P6SM SCT025 BKN035
     FM180800 04008KT P6SM SCT025
      AMD NOT SKED=

USA.gov is the U.S. government's official web portal to all federal, state and local government web resources and services.